{"data":{"norad_id":49082,"epoch":"2026-09-20T04:26:00.875904Z","epoch_age_seconds":49123,"freshness":"FRESH","line1":"1 49082U 21075H   26263.18473236  .00000010  00000+0 -81438-5 0  9991","line2":"2 49082  87.9200 347.0010 0001713 101.7714 258.3610 13.17650686246144","mean_motion":13.17650686,"eccentricity":0.0001713,"inclination_deg":87.92,"raan_deg":347.001,"arg_perigee_deg":101.7714,"mean_anomaly_deg":258.361,"bstar":-8.1438e-6,"rev_number":24614,"period_min":109.28541344834,"perigee_km":1192.4097439783,"apogee_km":1195.0038576645,"semimajor_km":7571.8438008214,"source":"CELESTRAK","updated_at":"2026-09-20T09:00:44.632150Z"}}